Location: ????
(55.5675°N, 37.6272°E)
Time: 07:12:51
(UTC+00:00)

Okean 2 Rocket - Pass Details

Date: 14 April 2026
Orbit: 612 x 633 km, 82.5° (Epoch: 12 May)

Event Time Altitude Azimuth Distance (km) Brightness Sun altitude
Exits shadow 21:37:27 63° 286° (WNW) 702 3.3 -24.7°
Drops below altitude 10° 21:41:52 10° 7° (N) 2,014 6.7 -24.7°
Sets 21:44:09 0° 11° (N) 2,929 7.9 -24.7°
